Weather History for Columbia / Mount Pleasant, TN

Change the Weather History Date:

Monday, June 9, 2014

  Actual Average (KBNA) Record (KBNA)
Temperature  
Mean Temperature 76 °F 74 °F  
Max Temperature 80 °F 85 °F 99 °F (1953)
Min Temperature 69 °F 64 °F 51 °F (1980)
Degree Days  
Heating Degree Days 0 0  
Month to date heating degree days 0  
Since 1 June heating degree days 0  
Since 1 July heating degree days 3685  
Cooling Degree Days 12 9  
Month to date cooling degree days 75  
Year to date cooling degree days 254  
Since 1 June cooling degree days 75  
Growing Degree Days 26 (Base 50)    
Moisture  
Dew Point 72 °F    
Average Humidity 86    
Maximum Humidity 100    
Minimum Humidity 74    
Precipitation  
Precipitation 0.00 in 0.14 in 1.95 in (1922)
Month to date precipitation 1.34  
Year to date precipitation 22.64  
Snow  
Snow 0.00 in 0.00 in 0.00 in (2002)
Month to date snowfall 0.0  
Since 1 June snowfall 0.0  
Since 1 July snowfall 6.3  
Snow Depth -    
Sea Level Pressure  
Sea Level Pressure 29.88 in    
Wind  
Wind Speed 4 mph (ESE)    
Max Wind Speed 13 mph    
Max Gust Speed -    
Visibility 9 miles    
Events      
T = Trace of Precipitation, MM = Missing Value Source: NWS Daily Summary

Daily Weather History Graph

Daily Weather History Graph

Search for Another Location

Airport:

Trip Planner

Search our weather history database for the weather conditions in past years. The results will help you decide how hot, cold, wet, or windy it might be!

Date:

Astronomy

Jun. 09, 2014 Rise Set
Actual Time 5:32 AM CDT 8:03 PM CDT
Civil Twilight 5:03 AM CDT 8:33 PM CDT
Nautical Twilight 4:26 AM CDT 9:10 PM CDT
Astronomical Twilight 3:45 AM CDT 9:50 PM CDT
Moon 4:30 PM CDT (6/9) 2:52 AM CDT (6/9)
Length of Visible Light 15h 30m
Length of Day
14h 30m
Waxing Gibbous, 85% of the Moon is Illuminated
Jun 9
Waxing Gibbous
Jun 12
Full
Jun 19
Last Quarter
Jun 27
New
Jul 5
First Quarter

Hourly Weather History & Observations

Time (CDT) Temp. Heat Index Dew Point Humidity Pressure Visibility Wind Dir Wind Speed Gust Speed Precip Events Conditions
12:55 AM - - - N/A% 29.92 in 10.0 mi Calm Calm - N/A   Clear
1:15 AM - - - N/A% 29.92 in 10.0 mi Calm Calm - N/A   Clear
1:35 AM - - - N/A% 29.92 in 10.0 mi North 3.5 mph - N/A   Clear
1:55 AM - - - N/A% 29.93 in 10.0 mi North 5.8 mph - N/A   Mostly Cloudy
2:15 AM - - - N/A% 29.93 in 10.0 mi North 3.5 mph - N/A   Overcast
2:35 AM - - - N/A% 29.93 in 10.0 mi Calm Calm - N/A   Overcast
2:55 AM - - - N/A% 29.91 in 10.0 mi ENE 3.5 mph - N/A   Overcast
3:15 AM - - - N/A% 29.92 in 10.0 mi Calm Calm - N/A   Mostly Cloudy
3:35 AM - - - N/A% 29.90 in 10.0 mi NNE 5.8 mph - N/A   Mostly Cloudy
3:55 AM - - - N/A% 29.91 in 10.0 mi Calm Calm - N/A   Mostly Cloudy
4:15 AM - - - N/A% 29.91 in 5.0 mi NNE 4.6 mph - N/A   Overcast
4:35 AM - - - N/A% 29.95 in 5.0 mi SW 5.8 mph - N/A   Overcast
4:55 AM - - - N/A% 29.93 in 2.5 mi NE 6.9 mph - N/A   Mostly Cloudy
5:15 AM - - - N/A% 29.92 in 2.0 mi East 3.5 mph - N/A   Overcast
5:35 AM - - - N/A% 29.92 in 2.5 mi ENE 6.9 mph - N/A   Overcast
5:55 AM - - - N/A% 29.95 in 2.0 mi ESE 8.1 mph - N/A   Overcast
6:15 AM - - - N/A% 29.93 in 6.0 mi ENE 9.2 mph - N/A   Mostly Cloudy
6:35 AM - - - N/A% 29.90 in 6.0 mi NNE 8.1 mph - N/A   Overcast
6:55 AM - - - N/A% 29.88 in 7.0 mi ENE 10.4 mph - N/A   Overcast
7:15 AM - - - N/A% 29.88 in 10.0 mi East 10.4 mph - N/A   Mostly Cloudy
7:35 AM - - - N/A% 29.88 in 10.0 mi East 8.1 mph - N/A   Mostly Cloudy
7:55 AM - - - N/A% 29.88 in 10.0 mi ESE 12.7 mph - N/A   Mostly Cloudy
8:15 AM - - - N/A% 29.91 in 10.0 mi SE 4.6 mph - N/A   Overcast
8:35 AM - - - N/A% 29.91 in 10.0 mi ESE 4.6 mph - N/A   Overcast
8:55 AM - - - N/A% 29.91 in 10.0 mi SE 5.8 mph - N/A   Overcast
9:15 AM - - - N/A% 29.91 in 10.0 mi SE 4.6 mph - N/A   Overcast
9:35 AM - - - N/A% 29.91 in 10.0 mi SE 5.8 mph - N/A   Overcast
9:55 AM - - - N/A% 29.91 in 10.0 mi SSE 8.1 mph - N/A   Overcast
10:15 AM - - - N/A% 29.92 in 10.0 mi South 4.6 mph - N/A   Overcast
10:35 AM - - - N/A% 29.92 in 10.0 mi SSW 4.6 mph - N/A   Overcast
10:55 AM - - - N/A% 29.92 in 10.0 mi Variable 4.6 mph - N/A   Overcast
11:55 AM 73.4 °F - 71.6 °F 94% 29.91 in 10.0 mi SW 8.1 mph - N/A   Overcast
12:15 PM 73.4 °F - 71.6 °F 94% 29.90 in 10.0 mi Variable 6.9 mph - N/A   Overcast
12:35 PM 75.2 °F - 71.6 °F 89% 29.89 in 10.0 mi Variable 4.6 mph - N/A   Overcast
12:55 PM 75.2 °F - 71.6 °F 89% 29.89 in 10.0 mi WSW 8.1 mph - N/A   Overcast
1:15 PM 75.2 °F - 71.6 °F 89% 29.89 in 10.0 mi WSW 8.1 mph - N/A   Overcast
1:35 PM 75.2 °F - 71.6 °F 89% 29.89 in 10.0 mi Variable 5.8 mph - N/A   Overcast
2:55 PM 77.0 °F - 71.6 °F 83% 29.86 in 10.0 mi Calm Calm - N/A   Mostly Cloudy
3:15 PM 78.8 °F - 71.6 °F 78% 29.85 in 10.0 mi East 4.6 mph - N/A   Partly Cloudy
3:35 PM 78.8 °F - 71.6 °F 78% 29.86 in 10.0 mi Calm Calm - N/A   Mostly Cloudy
3:55 PM 77.0 °F - 71.6 °F 83% 29.85 in 10.0 mi Calm Calm - N/A   Scattered Clouds
4:15 PM 78.8 °F - 71.6 °F 78% 29.85 in 10.0 mi Calm Calm - N/A   Partly Cloudy
4:35 PM 78.8 °F - 71.6 °F 78% 29.84 in 10.0 mi Calm Calm - N/A   Clear
4:55 PM 80.6 °F 85.4 °F 73.4 °F 79% 29.84 in 10.0 mi East 5.8 mph - N/A   Clear
5:15 PM 80.6 °F 85.4 °F 73.4 °F 79% 29.84 in 10.0 mi East 3.5 mph - N/A   Partly Cloudy
5:35 PM 80.6 °F 84.6 °F 71.6 °F 74% 29.83 in 10.0 mi SE 6.9 mph - N/A   Partly Cloudy
5:55 PM 80.6 °F 84.6 °F 71.6 °F 74% 29.83 in 10.0 mi SSE 4.6 mph - N/A   Scattered Clouds
6:15 PM 78.8 °F - 71.6 °F 78% 29.84 in 10.0 mi SE 3.5 mph - N/A   Scattered Clouds
6:35 PM 78.8 °F - 71.6 °F 78% 29.83 in 10.0 mi SE 4.6 mph - N/A   Partly Cloudy
6:55 PM 77.0 °F - 71.6 °F 83% 29.84 in 10.0 mi Calm Calm - N/A   Clear
7:15 PM 75.2 °F - 71.6 °F 89% 29.84 in 10.0 mi ESE 4.6 mph - N/A   Clear
7:35 PM 75.2 °F - 71.6 °F 89% 29.84 in 10.0 mi East 4.6 mph - N/A   Clear
7:55 PM 73.4 °F - 73.4 °F 100% 29.84 in 10.0 mi East 3.5 mph - N/A   Mostly Cloudy
8:15 PM 73.4 °F - 71.6 °F 94% 29.84 in 10.0 mi East 4.6 mph - N/A   Mostly Cloudy
8:35 PM 73.4 °F - 71.6 °F 94% 29.83 in 10.0 mi ESE 5.8 mph - N/A   Scattered Clouds
8:55 PM 73.4 °F - 71.6 °F 94% 29.82 in 10.0 mi East 5.8 mph - N/A   Partly Cloudy
9:15 PM 73.4 °F - 71.6 °F 94% 29.82 in 10.0 mi ESE 5.8 mph - N/A   Clear
9:35 PM 69.8 °F - 69.8 °F 100% 29.87 in - South 11.5 mph - N/A   Unknown
9:55 PM - - - N/A% 29.88 in - WSW 5.8 mph - N/A   Unknown
10:15 PM - - - N/A% 29.88 in 5.0 mi South 8.1 mph - N/A   Overcast
10:35 PM - - - N/A% 29.87 in 5.0 mi SSE 8.1 mph - N/A   Mostly Cloudy
10:55 PM - - - N/A% 29.86 in 6.0 mi SE 5.8 mph - N/A   Overcast
11:15 PM - - - N/A% 29.85 in 10.0 mi SSE 5.8 mph - N/A   Overcast
11:35 PM - - - N/A% 29.86 in 10.0 mi SE 9.2 mph - N/A   Overcast
11:55 PM - - - N/A% 29.85 in 10.0 mi SSE 5.8 mph - N/A   Overcast